sat.trackr.live / text

‹ back to catalog

STARLINK-32528

NORAD 61724 · 2024-196T

PAYLOAD ACTIVE UNKNOWN

§ Identity

Operator
Country
US
Launch date
2024-10-30
Launch site
AFETR
Launch vehicle
Mass (kg)
RCS (m²)

Purposes: comms

External: N2YO · Heavens-Above · Gunter

§ Orbital elements

Epoch: 2026-09-20T05:30:46.447200Z

Period
93.85 min
Inclination
53.1607°
Eccentricity
0.0001340
Mean motion
15.34376282 rev/d
Perigee alt
461.9 km
Apogee alt
463.7 km
Semi-major
6,840.9 km
B*
-4.7487e-5
RAAN
274.7378°
Arg perigee
79.9654°
Mean anomaly
280.1500°
Rev number
10,578

§ Raw data

STARLINK-325281 61724U 24196T   26263.22970425 -.00001979  00000+0 -47487-4 0  99932 61724  53.1607 274.7378 0001340  79.9654 280.1500 15.34376282105788

JSON: /api/v1/satellites/61724 · /tle

For live sub-satellite position, see the globe view (requires WebGL).

§ Visibility from observer

Set your observer location to see the next 7 days of passes ≥ 10°. The values pass through the URL so the page stays shareable.

No JS? Fill the form by hand. The geolocation button needs JavaScript.